Time,TemperatureF,DewpointF,PressureIn,WindDirection,WindDirectionDegrees,WindSpeedMPH,WindSpeedGustMPH,Humidity,HourlyPrecipIn,Conditions,Clouds,dailyrainin,SoftwareType,DateUTC
2013-03-29 00:00:00,38.7,15.9,29.97,North,0,0.0,0.0,39,0.00,,BKN100,0.00,VWS V13.01,2013-03-29 04:00:00,
2013-03-29 00:05:00,38.7,15.9,29.97,North,0,0.0,0.0,39,0.00,,BKN110,0.00,VWS V13.01,2013-03-29 04:05:00,
2013-03-29 00:10:00,38.5,15.7,29.97,North,0,0.0,0.0,39,0.00,,BKN110,0.00,VWS V13.01,2013-03-29 04:10:00,
2013-03-29 00:15:00,38.5,15.7,29.97,North,0,0.0,0.0,39,0.00,,BKN110,0.00,VWS V13.01,2013-03-29 04:15:00,
2013-03-29 00:20:00,38.7,15.9,29.97,North,0,0.0,0.0,39,0.00,,BKN110,0.00,VWS V13.01,2013-03-29 04:20:00,
2013-03-29 00:25:00,38.7,15.9,29.97,North,0,0.0,0.0,39,0.00,,BKN110,0.00,VWS V13.01,2013-03-29 04:25:00,
2013-03-29 00:30:00,38.8,16.0,29.97,North,0,0.0,0.0,39,0.00,,BKN110,0.00,VWS V13.01,2013-03-29 04:30:00,
2013-03-29 00:35:00,38.8,16.0,29.97,North,0,0.0,0.0,39,0.00,,BKN110,0.00,VWS V13.01,2013-03-29 04:35:00,
2013-03-29 00:40:00,38.8,16.0,29.97,North,0,0.0,0.0,39,0.00,,BKN110,0.00,VWS V13.01,2013-03-29 04:40:00,
2013-03-29 00:45:00,38.8,16.0,29.97,North,0,0.0,0.0,39,0.00,,OVC110,0.00,VWS V13.01,2013-03-29 04:45:00,
2013-03-29 00:50:00,38.8,16.0,29.97,North,0,0.0,0.0,39,0.00,,OVC110,0.00,VWS V13.01,2013-03-29 04:50:00,
2013-03-29 00:55:00,38.8,16.0,29.97,North,0,0.0,0.0,39,0.00,,OVC110,0.00,VWS V13.01,2013-03-29 04:55:00,
2013-03-29 01:00:00,38.7,15.9,29.97,North,0,0.0,0.0,39,0.00,,OVC110,0.00,VWS V13.01,2013-03-29 05:00:00,
2013-03-29 01:05:00,38.7,15.9,29.97,North,0,0.0,0.0,39,0.00,,OVC100,0.00,VWS V13.01,2013-03-29 05:05:00,
2013-03-29 01:10:00,38.5,15.7,29.97,North,0,0.0,0.0,39,0.00,,OVC100,0.00,VWS V13.01,2013-03-29 05:10:00,
2013-03-29 01:15:00,38.7,16.4,29.97,North,0,0.0,0.0,40,0.00,,OVC100,0.00,VWS V13.01,2013-03-29 05:15:00,
2013-03-29 01:20:00,38.8,16.6,29.97,North,0,0.0,0.0,40,0.00,,OVC100,0.00,VWS V13.01,2013-03-29 05:20:00,
2013-03-29 01:25:00,38.8,16.6,29.97,North,0,0.0,0.0,40,0.00,,OVC100,0.00,VWS V13.01,2013-03-29 05:25:00,
2013-03-29 01:30:00,38.8,16.6,29.97,North,0,0.0,0.0,40,0.00,,OVC100,0.00,VWS V13.01,2013-03-29 05:30:00,
2013-03-29 01:35:00,38.7,16.4,29.97,North,0,0.0,0.0,40,0.00,,OVC100,0.00,VWS V13.01,2013-03-29 05:35:00,
2013-03-29 01:40:00,38.7,16.4,30.00,North,0,0.0,0.0,40,0.00,,OVC100,0.00,VWS V13.01,2013-03-29 05:40:00,
2013-03-29 01:45:00,38.5,16.3,30.00,North,0,0.0,0.0,40,0.00,,OVC100,0.00,VWS V13.01,2013-03-29 05:45:00,
2013-03-29 01:50:00,38.7,16.4,30.00,North,0,0.0,0.0,40,0.00,,OVC100,0.00,VWS V13.01,2013-03-29 05:50:00,
2013-03-29 01:55:00,38.5,16.3,29.97,North,0,0.0,0.0,40,0.00,,OVC100,0.00,VWS V13.01,2013-03-29 05:55:00,
2013-03-29 02:00:00,38.5,16.3,29.97,North,0,0.0,0.0,40,0.00,,OVC100,0.00,VWS V13.01,2013-03-29 06:00:00,
2013-03-29 02:05:00,38.5,16.3,29.97,North,0,0.0,0.0,40,0.00,,OVC100,0.00,VWS V13.01,2013-03-29 06:05:00,
2013-03-29 02:10:00,38.5,16.3,29.97,North,0,0.0,0.0,40,0.00,,OVC100,0.00,VWS V13.01,2013-03-29 06:10:00,
2013-03-29 02:15:00,38.1,15.9,29.97,North,0,0.0,0.0,40,0.00,,OVC100,0.00,VWS V13.01,2013-03-29 06:15:00,
2013-03-29 02:20:00,37.9,15.8,29.97,North,0,0.0,0.0,40,0.00,,OVC100,0.00,VWS V13.01,2013-03-29 06:20:00,
2013-03-29 02:26:00,38.1,15.9,29.97,North,0,0.0,0.0,40,0.00,,OVC100,0.00,VWS V13.01,2013-03-29 06:26:00,
2013-03-29 02:31:00,38.1,15.9,29.97,North,0,0.0,0.0,40,0.00,,OVC100,0.00,VWS V13.01,2013-03-29 06:31:00,
2013-03-29 02:36:00,38.3,16.1,29.97,North,0,0.0,0.0,40,0.00,,OVC100,0.00,VWS V13.01,2013-03-29 06:36:00,
2013-03-29 02:41:00,38.3,16.1,29.97,North,0,0.0,0.0,40,0.00,,OVC100,0.00,VWS V13.01,2013-03-29 06:41:00,
2013-03-29 02:46:00,38.1,16.5,29.97,North,0,0.0,0.0,41,0.00,,OVC100,0.00,VWS V13.01,2013-03-29 06:46:00,
2013-03-29 02:51:00,37.9,16.4,29.97,North,0,0.0,0.0,41,0.00,,OVC100,0.00,VWS V13.01,2013-03-29 06:51:00,
2013-03-29 02:56:00,38.1,16.5,29.97,North,0,0.0,0.0,41,0.00,,OVC110,0.00,VWS V13.01,2013-03-29 06:56:00,
2013-03-29 03:01:00,37.9,16.4,29.97,North,0,0.0,0.0,41,0.00,,OVC110,0.00,VWS V13.01,2013-03-29 07:01:00,
2013-03-29 03:06:00,38.1,16.5,29.97,North,0,0.0,0.0,41,0.00,,OVC110,0.00,VWS V13.01,2013-03-29 07:06:00,
2013-03-29 03:11:00,37.9,16.4,29.97,North,0,0.0,0.0,41,0.00,,OVC110,0.00,VWS V13.01,2013-03-29 07:11:00,
2013-03-29 03:17:00,37.9,16.4,29.97,North,0,0.0,0.0,41,0.00,,OVC110,0.00,VWS V13.01,2013-03-29 07:17:00,
2013-03-29 03:22:00,37.9,16.4,29.97,North,0,0.0,0.0,41,0.00,,OVC110,0.00,VWS V13.01,2013-03-29 07:22:00,
2013-03-29 03:27:00,37.8,16.2,29.97,North,0,0.0,0.0,41,0.00,,OVC110,0.00,VWS V13.01,2013-03-29 07:27:00,
2013-03-29 03:32:00,37.8,16.2,29.97,North,0,0.0,0.0,41,0.00,,OVC110,0.00,VWS V13.01,2013-03-29 07:32:00,
2013-03-29 03:37:00,37.6,16.0,29.97,North,0,0.0,0.0,41,0.00,,OVC110,0.00,VWS V13.01,2013-03-29 07:37:00,
2013-03-29 03:42:00,37.2,15.7,29.97,North,0,0.0,0.0,41,0.00,,OVC110,0.00,VWS V13.01,2013-03-29 07:42:00,
2013-03-29 03:47:00,37.0,15.5,29.97,North,0,0.0,0.0,41,0.00,,OVC110,0.00,VWS V13.01,2013-03-29 07:47:00,
2013-03-29 03:52:00,36.7,15.2,29.97,North,0,0.0,0.0,41,0.00,,OVC110,0.00,VWS V13.01,2013-03-29 07:52:00,
2013-03-29 03:57:00,36.7,15.2,29.97,North,0,0.0,0.0,41,0.00,,OVC110,0.00,VWS V13.01,2013-03-29 07:57:00,
2013-03-29 04:02:00,36.7,15.8,29.97,North,0,0.0,0.0,42,0.00,,OVC110,0.00,VWS V13.01,2013-03-29 08:02:00,
2013-03-29 04:07:00,37.0,16.1,29.97,North,0,0.0,0.0,42,0.00,,OVC110,0.00,VWS V13.01,2013-03-29 08:07:00,
2013-03-29 04:12:00,37.0,16.1,29.97,North,0,0.0,0.0,42,0.00,,OVC110,0.00,VWS V13.01,2013-03-29 08:12:00,
2013-03-29 04:17:00,37.0,16.1,29.97,North,0,0.0,0.0,42,0.00,,OVC110,0.00,VWS V13.01,2013-03-29 08:17:00,
2013-03-29 04:22:00,37.0,16.1,29.97,North,0,0.0,0.0,42,0.00,,OVC110,0.00,VWS V13.01,2013-03-29 08:22:00,
2013-03-29 04:27:00,36.9,15.9,29.97,North,0,0.0,0.0,42,0.00,,OVC110,0.00,VWS V13.01,2013-03-29 08:27:00,
2013-03-29 04:32:00,36.9,15.9,29.97,North,0,0.0,0.0,42,0.00,,OVC110,0.00,VWS V13.01,2013-03-29 08:32:00,
2013-03-29 04:37:00,36.7,15.8,29.97,North,0,0.0,0.0,42,0.00,,OVC110,0.00,VWS V13.01,2013-03-29 08:37:00,
2013-03-29 04:42:00,36.5,15.6,29.97,North,0,0.0,0.0,42,0.00,,OVC110,0.00,VWS V13.01,2013-03-29 08:42:00,
2013-03-29 04:47:00,36.3,16.0,29.97,North,0,0.0,0.0,43,0.00,,OVC110,0.00,VWS V13.01,2013-03-29 08:47:00,
2013-03-29 04:52:00,36.3,16.0,29.97,North,0,0.0,0.0,43,0.00,,OVC110,0.00,VWS V13.01,2013-03-29 08:52:00,
2013-03-29 04:57:00,36.1,15.8,29.97,North,0,0.0,0.0,43,0.00,,OVC110,0.00,VWS V13.01,2013-03-29 08:57:00,
2013-03-29 05:02:00,36.1,15.8,29.97,North,0,0.0,0.0,43,0.00,,OVC110,0.00,VWS V13.01,2013-03-29 09:02:00,
2013-03-29 05:07:00,36.1,15.8,29.97,North,0,0.0,0.0,43,0.00,,OVC110,0.00,VWS V13.01,2013-03-29 09:07:00,
2013-03-29 05:12:00,36.3,16.0,29.97,North,0,0.0,0.0,43,0.00,,OVC110,0.00,VWS V13.01,2013-03-29 09:12:00,
2013-03-29 05:17:00,36.3,16.0,29.97,North,0,0.0,0.0,43,0.00,,OVC110,0.00,VWS V13.01,2013-03-29 09:17:00,
2013-03-29 05:22:00,36.3,16.0,29.97,North,0,0.0,0.0,43,0.00,,OVC110,0.00,VWS V13.01,2013-03-29 09:22:00,
2013-03-29 05:27:00,36.5,16.1,29.97,North,0,0.0,0.0,43,0.00,,OVC110,0.00,VWS V13.01,2013-03-29 09:27:00,
2013-03-29 05:32:00,36.5,16.1,29.97,North,0,0.0,0.0,43,0.00,,OVC110,0.00,VWS V13.01,2013-03-29 09:32:00,
2013-03-29 05:37:00,36.3,16.0,29.97,North,0,0.0,0.0,43,0.00,,OVC110,0.00,VWS V13.01,2013-03-29 09:37:00,
2013-03-29 05:42:00,36.3,16.0,29.97,North,0,0.0,0.0,43,0.00,,OVC120,0.00,VWS V13.01,2013-03-29 09:42:00,
2013-03-29 05:48:00,36.3,16.5,29.97,North,0,0.0,0.0,44,0.00,,OVC120,0.00,VWS V13.01,2013-03-29 09:48:00,
2013-03-29 05:53:00,36.3,16.0,29.97,North,0,0.0,0.0,43,0.00,,OVC120,0.00,VWS V13.01,2013-03-29 09:53:00,
2013-03-29 05:58:00,36.1,15.8,29.97,North,0,0.0,0.0,43,0.00,,OVC120,0.00,VWS V13.01,2013-03-29 09:58:00,
2013-03-29 06:03:00,36.0,15.6,29.97,North,0,0.0,0.0,43,0.00,,OVC120,0.00,VWS V13.01,2013-03-29 10:03:00,
2013-03-29 06:08:00,35.8,15.5,29.97,North,0,0.0,0.0,43,0.00,,OVC120,0.00,VWS V13.01,2013-03-29 10:08:00,
2013-03-29 06:13:00,35.6,15.9,29.97,North,0,0.0,0.0,44,0.00,,OVC120,0.00,VWS V13.01,2013-03-29 10:13:00,
2013-03-29 06:18:00,35.4,15.7,29.97,North,0,0.0,0.0,44,0.00,,OVC120,0.00,VWS V13.01,2013-03-29 10:18:00,
2013-03-29 06:23:00,35.2,15.5,29.97,North,0,0.0,0.0,44,0.00,,OVC120,0.00,VWS V13.01,2013-03-29 10:23:00,
2013-03-29 06:28:00,35.2,15.5,29.97,North,0,0.0,0.0,44,0.00,,OVC120,0.00,VWS V13.01,2013-03-29 10:28:00,
2013-03-29 06:33:00,35.1,15.4,29.97,North,0,0.0,0.0,44,0.00,,OVC120,0.00,VWS V13.01,2013-03-29 10:33:00,
2013-03-29 06:38:00,34.9,15.2,29.97,North,0,0.0,0.0,44,0.00,,OVC120,0.00,VWS V13.01,2013-03-29 10:38:00,
2013-03-29 06:43:00,34.9,15.2,29.97,North,0,0.0,0.0,44,0.00,,OVC120,0.00,VWS V13.01,2013-03-29 10:43:00,
2013-03-29 06:48:00,34.9,15.7,29.97,North,0,0.0,0.0,45,0.00,,OVC120,0.00,VWS V13.01,2013-03-29 10:48:00,
2013-03-29 06:53:00,34.7,15.6,29.97,North,0,0.0,0.0,45,0.00,,OVC120,0.00,VWS V13.01,2013-03-29 10:53:00,
2013-03-29 06:58:00,34.5,15.4,29.97,North,0,0.0,0.0,45,0.00,,OVC120,0.00,VWS V13.01,2013-03-29 10:58:00,
2013-03-29 07:03:00,34.5,15.4,29.97,North,0,0.0,0.0,45,0.00,,OVC120,0.00,VWS V13.01,2013-03-29 11:03:00,
2013-03-29 07:08:00,34.5,15.4,29.97,North,0,0.0,0.0,45,0.00,,OVC120,0.00,VWS V13.01,2013-03-29 11:08:00,
2013-03-29 07:13:00,34.5,15.4,29.97,North,0,0.0,0.0,45,0.00,,OVC120,0.00,VWS V13.01,2013-03-29 11:13:00,
2013-03-29 07:18:00,34.5,15.9,29.97,North,0,0.0,0.0,46,0.00,,OVC120,0.00,VWS V13.01,2013-03-29 11:18:00,
2013-03-29 07:23:00,34.5,15.9,30.00,North,0,0.0,0.0,46,0.00,,OVC120,0.00,VWS V13.01,2013-03-29 11:23:00,
2013-03-29 07:28:00,34.7,16.0,30.00,North,0,0.0,0.0,46,0.00,,OVC120,0.00,VWS V13.01,2013-03-29 11:28:00,
2013-03-29 07:33:00,34.9,16.2,30.00,North,0,0.0,0.0,46,0.00,,OVC120,0.00,VWS V13.01,2013-03-29 11:33:00,
2013-03-29 07:38:00,35.2,16.5,30.00,North,0,0.0,0.0,46,0.00,,OVC120,0.00,VWS V13.01,2013-03-29 11:38:00,
2013-03-29 07:43:00,35.6,16.9,30.00,North,0,0.0,0.0,46,0.00,,OVC120,0.00,VWS V13.01,2013-03-29 11:43:00,
2013-03-29 07:48:00,35.8,17.0,30.00,North,0,0.0,0.0,46,0.00,,OVC120,0.00,VWS V13.01,2013-03-29 11:48:00,
2013-03-29 07:54:00,36.0,17.2,30.00,North,0,0.0,0.0,46,0.00,,OVC120,0.00,VWS V13.01,2013-03-29 11:54:00,
2013-03-29 07:59:00,36.1,17.9,30.00,North,0,0.0,0.0,47,0.00,,OVC120,0.00,VWS V13.01,2013-03-29 11:59:00,
2013-03-29 08:04:00,36.3,18.0,30.00,North,0,0.0,0.0,47,0.00,,OVC120,0.00,VWS V13.01,2013-03-29 12:04:00,
2013-03-29 08:09:00,36.3,18.0,30.00,North,0,0.0,0.0,47,0.00,,OVC120,0.00,VWS V13.01,2013-03-29 12:09:00,
2013-03-29 08:14:00,36.5,18.2,30.00,North,0,0.0,0.0,47,0.00,,OVC120,0.00,VWS V13.01,2013-03-29 12:14:00,
2013-03-29 08:19:00,36.9,18.5,30.00,North,0,0.0,0.0,47,0.00,,OVC120,0.00,VWS V13.01,2013-03-29 12:19:00,
2013-03-29 08:24:00,37.2,18.9,30.00,North,0,0.0,0.0,47,0.00,,OVC120,0.00,VWS V13.01,2013-03-29 12:24:00,
2013-03-29 08:29:00,37.6,18.7,30.00,North,0,0.0,0.0,46,0.00,,OVC120,0.00,VWS V13.01,2013-03-29 12:29:00,
2013-03-29 08:34:00,38.1,18.7,30.00,North,0,0.0,0.0,45,0.00,,SCT070,0.00,VWS V13.01,2013-03-29 12:34:00,
2013-03-29 08:39:00,38.7,19.2,30.00,North,0,0.0,0.0,45,0.00,,SCT070,0.00,VWS V13.01,2013-03-29 12:39:00,
2013-03-29 08:44:00,39.0,18.4,30.00,North,0,0.0,0.0,43,0.00,,SCT070,0.00,VWS V13.01,2013-03-29 12:44:00,
2013-03-29 08:49:00,39.6,18.9,30.00,North,0,0.0,0.0,43,0.00,,SCT070,0.00,VWS V13.01,2013-03-29 12:49:00,
2013-03-29 08:54:00,39.9,18.7,30.00,North,0,0.0,0.0,42,0.00,,FEW070,0.00,VWS V13.01,2013-03-29 12:54:00,
2013-03-29 08:59:00,40.5,19.2,30.00,North,0,0.0,0.0,42,0.00,,FEW070,0.00,VWS V13.01,2013-03-29 12:59:00,
2013-03-29 09:04:00,41.0,18.5,30.00,North,0,0.0,0.0,40,0.00,,FEW070,0.00,VWS V13.01,2013-03-29 13:04:00,
2013-03-29 09:09:00,41.2,18.7,30.00,North,0,0.0,0.0,40,0.00,,FEW070,0.00,VWS V13.01,2013-03-29 13:09:00,
2013-03-29 09:14:00,41.7,19.2,30.00,North,0,0.0,0.0,40,0.00,,FEW070,0.00,VWS V13.01,2013-03-29 13:14:00,
2013-03-29 09:19:00,42.3,19.1,30.00,North,0,0.0,0.0,39,0.00,,FEW070,0.00,VWS V13.01,2013-03-29 13:19:00,
2013-03-29 09:24:00,42.6,19.4,30.00,North,0,0.0,0.0,39,0.00,,FEW070,0.00,VWS V13.01,2013-03-29 13:24:00,
2013-03-29 09:29:00,43.3,19.5,30.00,North,0,0.0,0.0,38,0.00,,FEW070,0.00,VWS V13.01,2013-03-29 13:29:00,
2013-03-29 09:34:00,43.7,19.8,30.00,North,0,0.0,0.0,38,0.00,,CLR,0.00,VWS V13.01,2013-03-29 13:34:00,
2013-03-29 09:39:00,44.1,20.1,30.00,North,0,0.0,0.0,38,0.00,,CLR,0.00,VWS V13.01,2013-03-29 13:39:00,
2013-03-29 09:44:00,44.4,19.8,30.00,North,0,0.0,0.0,37,0.00,,CLR,0.00,VWS V13.01,2013-03-29 13:44:00,
2013-03-29 09:49:00,45.0,19.6,30.00,North,0,0.0,0.0,36,0.00,,CLR,0.00,VWS V13.01,2013-03-29 13:49:00,
2013-03-29 09:54:00,45.9,20.4,30.00,North,0,0.0,0.0,36,0.00,,CLR,0.00,VWS V13.01,2013-03-29 13:54:00,
2013-03-29 09:59:00,46.0,19.3,30.00,North,0,0.0,0.0,34,0.00,,CLR,0.00,VWS V13.01,2013-03-29 13:59:00,
2013-03-29 10:04:00,46.6,19.7,30.00,North,0,0.0,0.0,34,0.00,,CLR,0.00,VWS V13.01,2013-03-29 14:04:00,
2013-03-29 10:09:00,46.9,19.4,30.00,North,0,0.0,0.0,33,0.00,,CLR,0.00,VWS V13.01,2013-03-29 14:09:00,
2013-03-29 10:14:00,47.7,19.3,30.00,North,0,0.0,0.0,32,0.00,,CLR,0.00,VWS V13.01,2013-03-29 14:14:00,
2013-03-29 10:19:00,47.5,18.4,30.00,North,0,0.0,0.0,31,0.00,,CLR,0.00,VWS V13.01,2013-03-29 14:19:00,
2013-03-29 10:24:00,47.5,18.4,30.00,North,0,0.0,0.0,31,0.00,,CLR,0.00,VWS V13.01,2013-03-29 14:24:00,
2013-03-29 10:29:00,47.7,17.8,30.00,North,0,0.0,0.0,30,0.00,,CLR,0.00,VWS V13.01,2013-03-29 14:29:00,
2013-03-29 10:34:00,47.7,17.8,30.00,North,0,0.0,0.0,30,0.00,,CLR,0.00,VWS V13.01,2013-03-29 14:34:00,
2013-03-29 10:39:00,47.5,16.8,30.00,North,0,0.0,0.0,29,0.00,,CLR,0.00,VWS V13.01,2013-03-29 14:39:00,
2013-03-29 10:44:00,47.5,16.8,30.00,North,0,0.0,0.0,29,0.00,,CLR,0.00,VWS V13.01,2013-03-29 14:44:00,
2013-03-29 10:49:00,47.8,17.1,30.00,North,0,0.0,0.0,29,0.00,,CLR,0.00,VWS V13.01,2013-03-29 14:49:00,
2013-03-29 10:54:00,48.0,17.3,30.00,North,0,0.0,0.0,29,0.00,,CLR,0.00,VWS V13.01,2013-03-29 14:54:00,
2013-03-29 10:59:00,48.4,17.6,30.00,North,0,0.0,0.0,29,0.00,,CLR,0.00,VWS V13.01,2013-03-29 14:59:00,
2013-03-29 11:04:00,48.6,17.8,30.00,North,0,0.0,0.0,29,0.00,,CLR,0.00,VWS V13.01,2013-03-29 15:04:00,
2013-03-29 11:09:00,49.1,17.4,30.00,North,0,0.0,0.0,28,0.00,,CLR,0.00,VWS V13.01,2013-03-29 15:09:00,
2013-03-29 11:14:00,49.1,17.4,30.00,North,0,0.0,0.0,28,0.00,,CLR,0.00,VWS V13.01,2013-03-29 15:14:00,
2013-03-29 11:19:00,49.5,17.7,30.00,North,0,0.0,0.0,28,0.00,,CLR,0.00,VWS V13.01,2013-03-29 15:19:00,
2013-03-29 11:24:00,49.3,17.6,29.97,North,0,0.0,0.0,28,0.00,,CLR,0.00,VWS V13.01,2013-03-29 15:24:00,
2013-03-29 11:29:00,49.6,17.9,29.97,North,0,0.0,0.0,28,0.00,,CLR,0.00,VWS V13.01,2013-03-29 15:29:00,
2013-03-29 11:34:00,50.2,17.5,29.97,North,0,0.0,0.0,27,0.00,,FEW040,0.00,VWS V13.01,2013-03-29 15:34:00,
2013-03-29 11:39:00,50.4,17.7,29.97,North,0,0.0,0.0,27,0.00,,FEW040,0.00,VWS V13.01,2013-03-29 15:39:00,
2013-03-29 11:44:00,50.5,17.8,29.97,North,0,0.0,0.0,27,0.00,,FEW040,0.00,VWS V13.01,2013-03-29 15:44:00,
2013-03-29 11:49:00,50.9,18.1,29.97,North,0,0.0,0.0,27,0.00,,FEW040,0.00,VWS V13.01,2013-03-29 15:49:00,
2013-03-29 11:54:00,50.5,17.8,29.97,North,0,0.0,0.0,27,0.00,,SCT044,0.00,VWS V13.01,2013-03-29 15:54:00,
2013-03-29 11:59:00,50.7,18.0,29.97,North,0,0.0,0.0,27,0.00,,SCT044,0.00,VWS V13.01,2013-03-29 15:59:00,
2013-03-29 12:04:00,51.3,18.4,29.97,North,0,0.0,0.0,27,0.00,,SCT044,0.00,VWS V13.01,2013-03-29 16:04:00,
2013-03-29 12:10:00,51.6,18.8,29.97,North,0,0.0,0.0,27,0.00,,SCT044,0.00,VWS V13.01,2013-03-29 16:10:00,
2013-03-29 12:15:00,51.6,18.8,29.97,North,0,0.0,0.0,27,0.00,,SCT044,0.00,VWS V13.01,2013-03-29 16:15:00,
2013-03-29 12:20:00,52.2,19.2,29.97,North,0,0.0,0.0,27,0.00,,SCT044,0.00,VWS V13.01,2013-03-29 16:20:00,
2013-03-29 12:25:00,52.3,18.5,29.97,North,0,0.0,0.0,26,0.00,,SCT044,0.00,VWS V13.01,2013-03-29 16:25:00,
2013-03-29 12:30:00,52.3,18.5,29.97,North,0,0.0,0.0,26,0.00,,SCT044,0.00,VWS V13.01,2013-03-29 16:30:00,
2013-03-29 12:35:00,52.3,18.5,29.97,North,0,0.0,0.0,26,0.00,,BKN055,0.00,VWS V13.01,2013-03-29 16:35:00,
2013-03-29 12:40:00,51.8,18.0,29.97,North,0,0.0,0.0,26,0.00,,BKN055,0.00,VWS V13.01,2013-03-29 16:40:00,
2013-03-29 12:45:00,52.0,18.2,29.97,North,0,0.0,0.0,26,0.00,,BKN055,0.00,VWS V13.01,2013-03-29 16:45:00,
2013-03-29 12:50:00,52.5,18.6,29.97,North,0,0.0,0.0,26,0.00,,BKN055,0.00,VWS V13.01,2013-03-29 16:50:00,
2013-03-29 12:55:00,52.7,18.8,29.97,North,0,0.0,0.0,26,0.00,,BKN070,0.00,VWS V13.01,2013-03-29 16:55:00,
2013-03-29 13:00:00,52.3,18.5,29.97,North,0,0.0,0.0,26,0.00,,BKN070,0.00,VWS V13.01,2013-03-29 17:00:00,
2013-03-29 13:05:00,52.3,18.5,29.97,North,0,0.0,0.0,26,0.00,,BKN070,0.00,VWS V13.01,2013-03-29 17:05:00,
2013-03-29 13:10:00,52.3,18.5,29.94,North,0,0.0,0.0,26,0.00,,BKN070,0.00,VWS V13.01,2013-03-29 17:10:00,
2013-03-29 13:15:00,53.1,19.1,29.94,North,0,0.0,0.0,26,0.00,,BKN070,0.00,VWS V13.01,2013-03-29 17:15:00,
2013-03-29 13:20:00,54.0,19.0,29.94,North,0,0.0,0.0,25,0.00,,BKN070,0.00,VWS V13.01,2013-03-29 17:20:00,
2013-03-29 13:25:00,54.7,19.6,29.94,North,0,0.0,0.0,25,0.00,,BKN070,0.00,VWS V13.01,2013-03-29 17:25:00,
2013-03-29 13:30:00,53.6,16.7,29.94,North,0,0.0,0.0,23,0.00,,BKN070,0.00,VWS V13.01,2013-03-29 17:30:00,
2013-03-29 13:35:00,52.9,16.1,29.94,North,0,0.0,0.0,23,0.00,,OVC085,0.00,VWS V13.01,2013-03-29 17:35:00,
2013-03-29 13:40:00,52.9,16.1,29.94,North,0,0.0,0.0,23,0.00,,OVC085,0.00,VWS V13.01,2013-03-29 17:40:00,
2013-03-29 13:45:00,53.4,16.6,29.94,North,0,0.0,0.0,23,0.00,,OVC085,0.00,VWS V13.01,2013-03-29 17:45:00,
2013-03-29 13:50:00,53.6,16.7,29.94,North,0,0.0,0.0,23,0.00,,OVC085,0.00,VWS V13.01,2013-03-29 17:50:00,
2013-03-29 13:55:00,52.7,16.0,29.94,North,0,0.0,0.0,23,0.00,,OVC070,0.00,VWS V13.01,2013-03-29 17:55:00,
2013-03-29 14:00:00,52.7,16.0,29.94,North,0,0.0,0.0,23,0.00,,OVC070,0.00,VWS V13.01,2013-03-29 18:00:00,
2013-03-29 14:05:00,53.6,16.7,29.94,North,0,0.0,0.0,23,0.00,,OVC070,0.00,VWS V13.01,2013-03-29 18:05:00,
2013-03-29 14:10:00,53.2,16.4,29.94,North,0,0.0,0.0,23,0.00,,OVC070,0.00,VWS V13.01,2013-03-29 18:10:00,
2013-03-29 14:15:00,52.2,15.5,29.94,North,0,0.0,0.0,23,0.00,,OVC070,0.00,VWS V13.01,2013-03-29 18:15:00,
2013-03-29 14:20:00,52.7,16.0,29.94,North,0,0.0,0.0,23,0.00,,OVC070,0.00,VWS V13.01,2013-03-29 18:20:00,
2013-03-29 14:25:00,51.8,15.2,29.94,North,0,0.0,0.0,23,0.00,,OVC070,0.00,VWS V13.01,2013-03-29 18:25:00,
2013-03-29 14:30:00,52.0,15.4,29.94,North,0,0.0,0.0,23,0.00,,OVC070,0.00,VWS V13.01,2013-03-29 18:30:00,
2013-03-29 14:36:00,52.0,15.4,29.94,North,0,0.0,0.0,23,0.00,,OVC085,0.00,VWS V13.01,2013-03-29 18:36:00,
2013-03-29 14:41:00,50.9,15.4,29.94,North,0,0.0,0.0,24,0.00,,OVC085,0.00,VWS V13.01,2013-03-29 18:41:00,
2013-03-29 14:46:00,50.4,14.9,29.94,North,0,0.0,0.0,24,0.00,,OVC085,0.00,VWS V13.01,2013-03-29 18:46:00,
2013-03-29 14:51:00,50.4,14.9,29.94,North,0,0.0,0.0,24,0.00,,OVC085,0.00,VWS V13.01,2013-03-29 18:51:00,
2013-03-29 14:56:00,50.2,14.8,29.94,North,0,0.0,0.0,24,0.00,,OVC080,0.00,VWS V13.01,2013-03-29 18:56:00,
2013-03-29 15:01:00,50.4,14.9,29.94,North,0,0.0,0.0,24,0.00,,OVC080,0.00,VWS V13.01,2013-03-29 19:01:00,
2013-03-29 15:06:00,50.2,14.8,29.94,North,0,0.0,0.0,24,0.00,,OVC080,0.00,VWS V13.01,2013-03-29 19:06:00,
2013-03-29 15:11:00,50.2,14.8,29.94,North,0,0.0,0.0,24,0.00,,OVC080,0.00,VWS V13.01,2013-03-29 19:11:00,
2013-03-29 15:16:00,50.4,14.9,29.94,North,0,0.0,0.0,24,0.00,,OVC080,0.00,VWS V13.01,2013-03-29 19:16:00,
2013-03-29 15:21:00,50.2,14.8,29.94,North,0,0.0,0.0,24,0.00,,OVC080,0.00,VWS V13.01,2013-03-29 19:21:00,
2013-03-29 15:26:00,49.6,14.3,29.94,North,0,0.0,0.0,24,0.00,,OVC080,0.00,VWS V13.01,2013-03-29 19:26:00,
2013-03-29 15:31:00,48.9,13.7,29.94,North,0,0.0,0.0,24,0.00,,OVC080,0.00,VWS V13.01,2013-03-29 19:31:00,
2013-03-29 15:37:00,48.4,13.3,29.94,North,0,0.0,0.0,24,0.00,,OVC090,0.00,VWS V13.01,2013-03-29 19:37:00,
2013-03-29 15:42:00,48.0,13.0,29.91,North,0,0.0,0.0,24,0.00,,OVC090,0.00,VWS V13.01,2013-03-29 19:42:00,
2013-03-29 15:47:00,48.2,13.1,29.91,North,0,0.0,0.0,24,0.00,,OVC090,0.00,VWS V13.01,2013-03-29 19:47:00,
2013-03-29 15:52:00,48.7,13.6,29.91,North,0,0.0,0.0,24,0.00,,OVC090,0.00,VWS V13.01,2013-03-29 19:52:00,
2013-03-29 15:57:00,48.9,13.7,29.94,North,0,0.0,0.0,24,0.00,,OVC090,0.00,VWS V13.01,2013-03-29 19:57:00,
2013-03-29 16:02:00,48.6,13.4,29.94,North,0,0.0,0.0,24,0.00,,OVC090,0.00,VWS V13.01,2013-03-29 20:02:00,
2013-03-29 16:07:00,48.2,13.1,29.94,North,0,0.0,0.0,24,0.00,,OVC090,0.00,VWS V13.01,2013-03-29 20:07:00,
2013-03-29 16:12:00,47.8,12.8,29.94,North,0,0.0,0.0,24,0.00,,OVC090,0.00,VWS V13.01,2013-03-29 20:12:00,
2013-03-29 16:17:00,47.7,12.7,29.94,North,0,0.0,0.0,24,0.00,,OVC090,0.00,VWS V13.01,2013-03-29 20:17:00,
2013-03-29 16:22:00,47.3,15.0,29.94,North,0,0.0,0.0,27,0.00,,OVC090,0.00,VWS V13.01,2013-03-29 20:22:00,
2013-03-29 16:27:00,46.9,14.7,29.94,North,0,0.0,0.0,27,0.00,,OVC090,0.00,VWS V13.01,2013-03-29 20:27:00,
2013-03-29 16:32:00,46.6,14.4,29.94,North,0,0.0,0.0,27,0.00,,OVC080,0.00,VWS V13.01,2013-03-29 20:32:00,
2013-03-29 16:37:00,46.4,14.2,29.94,North,0,0.0,0.0,27,0.00,,OVC080,0.00,VWS V13.01,2013-03-29 20:37:00,
2013-03-29 16:42:00,46.2,14.1,29.94,North,0,0.0,0.0,27,0.00,,OVC080,0.00,VWS V13.01,2013-03-29 20:42:00,
2013-03-29 16:47:00,46.2,14.9,29.94,North,0,0.0,0.0,28,0.00,,OVC080,0.00,VWS V13.01,2013-03-29 20:47:00,
2013-03-29 16:52:00,46.0,14.8,29.94,North,0,0.0,0.0,28,0.00,,OVC080,0.00,VWS V13.01,2013-03-29 20:52:00,
2013-03-29 16:57:00,46.0,14.8,29.94,North,0,0.0,0.0,28,0.00,,OVC080,0.00,VWS V13.01,2013-03-29 20:57:00,
2013-03-29 17:02:00,45.9,14.6,29.94,North,0,0.0,0.0,28,0.00,,OVC080,0.00,VWS V13.01,2013-03-29 21:02:00,
2013-03-29 17:07:00,45.7,14.5,29.94,North,0,0.0,0.0,28,0.00,,OVC080,0.00,VWS V13.01,2013-03-29 21:07:00,
2013-03-29 17:12:00,45.3,14.1,29.94,North,0,0.0,0.0,28,0.00,,OVC080,0.00,VWS V13.01,2013-03-29 21:12:00,
2013-03-29 17:17:00,45.1,14.0,29.94,North,0,0.0,0.0,28,0.00,,OVC080,0.00,VWS V13.01,2013-03-29 21:17:00,
2013-03-29 17:22:00,44.8,13.7,29.94,North,0,0.0,0.0,28,0.00,,OVC080,0.00,VWS V13.01,2013-03-29 21:22:00,
2013-03-29 17:28:00,44.4,13.4,29.94,North,0,0.0,0.0,28,0.00,,OVC080,0.00,VWS V13.01,2013-03-29 21:28:00,
2013-03-29 17:33:00,44.2,13.2,29.94,North,0,0.0,0.0,28,0.00,,OVC075,0.00,VWS V13.01,2013-03-29 21:33:00,
2013-03-29 17:38:00,44.1,13.1,29.94,North,0,0.0,0.0,28,0.00,,OVC075,0.00,VWS V13.01,2013-03-29 21:38:00,
2013-03-29 17:43:00,44.1,13.1,29.94,North,0,0.0,0.0,28,0.00,,OVC075,0.00,VWS V13.01,2013-03-29 21:43:00,
2013-03-29 17:48:00,43.9,12.9,29.94,North,0,0.0,0.0,28,0.00,,OVC075,0.00,VWS V13.01,2013-03-29 21:48:00,
2013-03-29 17:53:00,43.7,13.5,29.94,North,0,0.0,0.0,29,0.00,,OVC075,0.00,VWS V13.01,2013-03-29 21:53:00,
2013-03-29 17:58:00,43.7,13.5,29.94,North,0,0.0,0.0,29,0.00,,OVC075,0.00,VWS V13.01,2013-03-29 21:58:00,
2013-03-29 18:03:00,43.7,13.5,29.94,North,0,0.0,0.0,29,0.00,,OVC075,0.00,VWS V13.01,2013-03-29 22:03:00,
2013-03-29 18:08:00,43.5,13.4,29.94,North,0,0.0,0.0,29,0.00,,OVC075,0.00,VWS V13.01,2013-03-29 22:08:00,
2013-03-29 18:13:00,43.5,13.4,29.94,North,0,0.0,0.0,29,0.00,,OVC075,0.00,VWS V13.01,2013-03-29 22:13:00,
2013-03-29 18:18:00,43.5,13.4,29.94,North,0,0.0,0.0,29,0.00,,OVC075,0.00,VWS V13.01,2013-03-29 22:18:00,
2013-03-29 18:23:00,43.5,13.4,29.94,North,0,0.0,0.0,29,0.00,,OVC075,0.00,VWS V13.01,2013-03-29 22:23:00,
2013-03-29 18:28:00,43.3,13.2,29.94,North,0,0.0,0.0,29,0.00,,OVC075,0.00,VWS V13.01,2013-03-29 22:28:00,
2013-03-29 18:33:00,43.3,13.2,29.94,North,0,0.0,0.0,29,0.00,,OVC075,0.00,VWS V13.01,2013-03-29 22:33:00,
2013-03-29 18:38:00,43.0,12.9,29.94,North,0,0.0,0.0,29,0.00,,OVC075,0.00,VWS V13.01,2013-03-29 22:38:00,
2013-03-29 18:43:00,42.6,13.4,29.97,North,0,0.0,0.0,30,0.00,,OVC075,0.00,VWS V13.01,2013-03-29 22:43:00,
2013-03-29 18:48:00,42.1,12.9,29.97,North,0,0.0,0.0,30,0.00,,OVC075,0.00,VWS V13.01,2013-03-29 22:48:00,
2013-03-29 18:53:00,41.9,13.5,29.97,North,0,0.0,0.0,31,0.00,,BKN065,0.00,VWS V13.01,2013-03-29 22:53:00,
2013-03-29 18:58:00,41.5,13.2,29.97,North,0,0.0,0.0,31,0.00,,BKN065,0.00,VWS V13.01,2013-03-29 22:58:00,
2013-03-29 19:03:00,41.2,13.6,29.97,North,0,0.0,0.0,32,0.00,,BKN065,0.00,VWS V13.01,2013-03-29 23:03:00,
2013-03-29 19:08:00,41.0,14.1,29.97,North,0,0.0,0.0,33,0.00,,BKN065,0.00,VWS V13.01,2013-03-29 23:08:00,
2013-03-29 19:13:00,40.8,14.6,29.97,North,0,0.0,0.0,34,0.00,,BKN065,0.00,VWS V13.01,2013-03-29 23:13:00,
2013-03-29 19:18:00,40.6,14.5,29.97,North,0,0.0,0.0,34,0.00,,BKN065,0.00,VWS V13.01,2013-03-29 23:18:00,
2013-03-29 19:23:00,40.6,14.5,29.97,North,0,0.0,0.0,34,0.00,,BKN065,0.00,VWS V13.01,2013-03-29 23:23:00,
2013-03-29 19:28:00,40.5,14.3,29.97,North,0,0.0,0.0,34,0.00,,BKN065,0.00,VWS V13.01,2013-03-29 23:28:00,
2013-03-29 19:33:00,40.5,15.0,29.97,North,0,0.0,0.0,35,0.00,,OVC055,0.00,VWS V13.01,2013-03-29 23:33:00,
2013-03-29 19:38:00,40.3,14.8,29.97,North,0,0.0,0.0,35,0.00,,OVC055,0.00,VWS V13.01,2013-03-29 23:38:00,
2013-03-29 19:43:00,40.1,14.7,29.97,North,0,0.0,0.0,35,0.00,,OVC055,0.00,VWS V13.01,2013-03-29 23:43:00,
2013-03-29 19:48:00,40.1,14.7,29.97,North,0,0.0,0.0,35,0.00,,OVC055,0.00,VWS V13.01,2013-03-29 23:48:00,
2013-03-29 19:53:00,40.1,14.7,29.97,North,0,0.0,0.0,35,0.00,,OVC055,0.00,VWS V13.01,2013-03-29 23:53:00,
2013-03-29 19:58:00,39.9,14.5,29.97,North,0,0.0,0.0,35,0.00,,OVC055,0.00,VWS V13.01,2013-03-29 23:58:00,
2013-03-29 20:03:00,39.9,14.5,29.97,North,0,0.0,0.0,35,0.00,,OVC055,0.00,VWS V13.01,2013-03-30 00:03:00,
2013-03-29 20:08:00,39.7,15.0,29.97,North,0,0.0,0.0,36,0.00,,OVC055,0.00,VWS V13.01,2013-03-30 00:08:00,
2013-03-29 20:14:00,39.7,15.0,29.97,North,0,0.0,0.0,36,0.00,,OVC060,0.00,VWS V13.01,2013-03-30 00:14:00,
2013-03-29 20:19:00,39.7,15.0,29.97,North,0,0.0,0.0,36,0.00,,OVC060,0.00,VWS V13.01,2013-03-30 00:19:00,
2013-03-29 20:24:00,39.6,14.8,29.97,North,0,0.0,0.0,36,0.00,,OVC060,0.00,VWS V13.01,2013-03-30 00:24:00,
2013-03-29 20:29:00,39.4,15.3,29.97,North,0,0.0,0.0,37,0.00,,OVC060,0.00,VWS V13.01,2013-03-30 00:29:00,
2013-03-29 20:34:00,39.4,15.3,29.97,North,0,0.0,0.0,37,0.00,,OVC050,0.00,VWS V13.01,2013-03-30 00:34:00,
2013-03-29 20:39:00,39.4,15.3,29.97,North,0,0.0,0.0,37,0.00,,OVC050,0.00,VWS V13.01,2013-03-30 00:39:00,
2013-03-29 20:44:00,39.7,15.6,29.97,North,0,0.0,0.0,37,0.00,,OVC050,0.00,VWS V13.01,2013-03-30 00:44:00,
2013-03-29 20:49:00,39.7,15.6,29.97,North,0,0.0,0.0,37,0.00,,OVC050,0.00,VWS V13.01,2013-03-30 00:49:00,
2013-03-29 20:54:00,39.7,15.6,30.00,North,0,0.0,0.0,37,0.00,,OVC060,0.00,VWS V13.01,2013-03-30 00:54:00,
2013-03-29 20:59:00,39.7,15.6,30.00,North,0,0.0,0.0,37,0.00,,OVC060,0.00,VWS V13.01,2013-03-30 00:59:00,
2013-03-29 21:04:00,39.7,15.6,30.00,North,0,0.0,0.0,37,0.00,,OVC060,0.00,VWS V13.01,2013-03-30 01:04:00,
2013-03-29 21:09:00,39.7,15.6,30.00,North,0,0.0,0.0,37,0.00,,OVC060,0.00,VWS V13.01,2013-03-30 01:09:00,
2013-03-29 21:14:00,39.6,15.4,30.00,North,0,0.0,0.0,37,0.00,,OVC060,0.00,VWS V13.01,2013-03-30 01:14:00,
2013-03-29 21:19:00,39.4,15.3,30.00,North,0,0.0,0.0,37,0.00,,OVC060,0.00,VWS V13.01,2013-03-30 01:19:00,
2013-03-29 21:24:00,39.4,15.3,30.00,North,0,0.0,0.0,37,0.00,,OVC060,0.00,VWS V13.01,2013-03-30 01:24:00,
2013-03-29 21:29:00,39.2,15.1,30.00,North,0,0.0,0.0,37,0.00,,OVC060,0.00,VWS V13.01,2013-03-30 01:29:00,
2013-03-29 21:34:00,39.2,15.1,30.00,North,0,0.0,0.0,37,0.00,,OVC043,0.00,VWS V13.01,2013-03-30 01:34:00,
2013-03-29 21:39:00,39.2,15.1,30.00,North,0,0.0,0.0,37,0.00,,OVC043,0.00,VWS V13.01,2013-03-30 01:39:00,
2013-03-29 21:44:00,39.0,15.6,30.00,North,0,0.0,0.0,38,0.00,,OVC043,0.00,VWS V13.01,2013-03-30 01:44:00,
2013-03-29 21:49:00,38.7,15.3,30.00,North,0,0.0,0.0,38,0.00,,OVC043,0.00,VWS V13.01,2013-03-30 01:49:00,
2013-03-29 21:54:00,38.5,15.1,30.00,North,0,0.0,0.0,38,0.00,,OVC050,0.00,VWS V13.01,2013-03-30 01:54:00,
2013-03-29 21:59:00,38.5,15.1,30.00,North,0,0.0,0.0,38,0.00,,OVC050,0.00,VWS V13.01,2013-03-30 01:59:00,
2013-03-29 22:04:00,38.5,15.1,30.00,North,0,0.0,0.0,38,0.00,,OVC050,0.00,VWS V13.01,2013-03-30 02:04:00,
2013-03-29 22:09:00,38.3,14.9,30.00,North,0,0.0,0.0,38,0.00,,OVC050,0.00,VWS V13.01,2013-03-30 02:09:00,
2013-03-29 22:14:00,38.1,14.8,30.00,North,0,0.0,0.0,38,0.00,,OVC050,0.00,VWS V13.01,2013-03-30 02:14:00,
2013-03-29 22:19:00,37.9,15.2,30.00,North,0,0.0,0.0,39,0.00,,OVC050,0.00,VWS V13.01,2013-03-30 02:19:00,
2013-03-29 22:24:00,37.6,14.9,30.00,North,0,0.0,0.0,39,0.00,,OVC050,0.00,VWS V13.01,2013-03-30 02:24:00,
2013-03-29 22:29:00,37.4,14.7,30.00,North,0,0.0,0.0,39,0.00,,OVC050,0.00,VWS V13.01,2013-03-30 02:29:00,
2013-03-29 22:34:00,37.2,14.6,30.00,North,0,0.0,0.0,39,0.00,,OVC050,0.00,VWS V13.01,2013-03-30 02:34:00,
2013-03-29 22:39:00,37.2,14.6,30.00,North,0,0.0,0.0,39,0.00,,OVC050,0.00,VWS V13.01,2013-03-30 02:39:00,
2013-03-29 22:44:00,37.2,14.6,30.00,North,0,0.0,0.0,39,0.00,,OVC050,0.00,VWS V13.01,2013-03-30 02:44:00,
2013-03-29 22:49:00,37.4,14.7,30.00,North,0,0.0,0.0,39,0.00,,OVC050,0.00,VWS V13.01,2013-03-30 02:49:00,
2013-03-29 22:54:00,37.2,15.1,30.00,North,0,0.0,0.0,40,0.00,,OVC050,0.00,VWS V13.01,2013-03-30 02:54:00,
2013-03-29 22:59:00,37.0,15.0,30.00,North,0,0.0,0.0,40,0.00,,OVC050,0.00,VWS V13.01,2013-03-30 02:59:00,
2013-03-29 23:04:00,36.9,14.8,30.00,North,0,0.0,0.0,40,0.00,,OVC050,0.00,VWS V13.01,2013-03-30 03:04:00,
2013-03-29 23:09:00,36.9,14.8,30.00,North,0,0.0,0.0,40,0.00,,OVC050,0.00,VWS V13.01,2013-03-30 03:09:00,
2013-03-29 23:14:00,37.0,15.0,30.00,North,0,0.0,0.0,40,0.00,,OVC050,0.00,VWS V13.01,2013-03-30 03:14:00,
2013-03-29 23:19:00,37.2,15.1,30.00,North,0,0.0,0.0,40,0.00,,OVC050,0.00,VWS V13.01,2013-03-30 03:19:00,
2013-03-29 23:24:00,37.6,15.5,30.00,North,0,0.0,0.0,40,0.00,,OVC050,0.00,VWS V13.01,2013-03-30 03:24:00,
2013-03-29 23:29:00,37.6,15.5,30.00,North,0,0.0,0.0,40,0.00,,OVC050,0.00,VWS V13.01,2013-03-30 03:29:00,
2013-03-29 23:34:00,37.8,15.6,30.00,North,0,0.0,0.0,40,0.00,,OVC085,0.00,VWS V13.01,2013-03-30 03:34:00,
2013-03-29 23:39:00,37.8,15.6,30.00,North,0,0.0,0.0,40,0.00,,OVC085,0.00,VWS V13.01,2013-03-30 03:39:00,
2013-03-29 23:44:00,37.8,15.6,30.00,North,0,0.0,0.0,40,0.00,,OVC085,0.00,VWS V13.01,2013-03-30 03:44:00,
2013-03-29 23:49:00,37.6,15.5,30.00,North,0,0.0,0.0,40,0.00,,OVC085,0.00,VWS V13.01,2013-03-30 03:49:00,
2013-03-29 23:54:00,37.4,15.3,30.00,North,0,0.0,0.0,40,0.00,,BKN060,0.00,VWS V13.01,2013-03-30 03:54:00,
2013-03-29 23:59:00,37.0,15.0,30.00,North,0,0.0,0.0,40,0.00,,BKN060,0.00,VWS V13.01,2013-03-30 03:59:00,